[[{"header":{"parameterUnit":"m.s-1","parameterCategory":1,"la1":30.2991,"la2":30.254,"lo1":-89.0895,"lo2":-89.0444,"dx":0.0017,"dy":0.0017,"nx":28,"ny":28,"refTime":"2022-11-07T09:00:00:Z","depth":0,"parameterNumber":2,"parameterNumberName":"U-component_of_WINDS"},"data":[0,0,0,0,0,0,0,0,0,0,0,0,0,0,0,0,0,0,0,0,0,0,0,0,0,0,0,0,0,0,0,0,0,0,0,0,0,0,0,0,0,0,0,0,0,0,0,0,0,0,0,0,0,0,0,0,0,0,1.5988,1.5988,0,1.5984,1.5984,1.5984,1.5923,1.5921,1.592,1.5918,1.5914,1.5915,1.5916,0,0,0,0,0,0,0,0,0,0,0,0,0,1.5944,1.5946,1.5988,1.5988,1.5988,1.5984,1.5984,1.5984,1.5923,1.5921,1.5919,1.5918,1.5913,1.5915,1.5917,0,0,0,0,0,0,0,0,0,0,0,0,0,1.5954,1.5946,1.5988,1.5957,1.5955,1.5984,1.5984,1.5984,1.5924,1.5921,1.5919,1.5917,1.5913,1.5915,1.5917,1.5975,0,0,1.5923,1.5924,0,0,0,0,0,0,0,0,1.5954,1.5956,1.5962,1.596,1.5957,1.5951,1.5966,1.5981,1.5924,1.5935,1.5918,1.5916,1.5928,1.5929,1.5933,1.5975,1.5974,1.5923,1.5924,1.5925,1.5926,0,0,0,0,0,0,0,1.5953,1.5956,1.5986,1.5962,1.5959,1.5944,1.5943,1.5969,1.5945,1.5934,1.593,1.593,1.5926,1.5931,1.5932,1.5974,1.5923,1.5925,1.5926,1.5927,1.6062,1.6064,0,0,0,0,0,0,1.5957,1.5955,1.5986,1.5986,1.5949,1.5946,1.5945,1.5955,1.5944,1.594,1.5932,1.5927,1.5929,1.593,1.5932,1.5997,1.5925,1.5927,1.5928,1.606,1.6062,1.6065,0,0,0,0,0,0,1.5956,1.596,1.5987,1.597,1.5972,1.595,1.5962,1.5957,1.5961,1.5943,1.5938,1.5942,1.5927,1.5929,1.5964,1.5996,1.5928,1.5929,1.6057,1.606,1.6064,1.613,0,0,0,0,0,0,1.5955,1.596,1.5982,1.5971,1.5973,1.6019,1.5964,1.5958,1.5965,1.5959,1.595,1.5947,1.5926,1.5962,1.5966,1.5998,1.5931,1.6054,1.6058,1.6063,1.6125,1.6135,1.6145,0,0,0,0,0,1.5954,1.6001,1.5983,1.5987,1.6,1.6021,1.6023,1.5997,1.5968,1.5989,1.5977,1.5947,1.5993,1.5966,1.597,1.6003,1.6051,1.6057,1.6062,1.612,1.6133,1.6144,0,0,0,0,0,0,1.6017,1.5999,1.5979,1.6025,1.6025,1.6011,1.6037,1.6012,1.6021,1.6014,1.5983,1.5982,1.6021,1.6016,1.5986,1.6058,1.6017,1.6023,1.6059,1.6072,1.6081,1.608,1.5933,0,0,0,0,0,1.6036,1.6055,1.6039,1.608,1.6081,1.606,1.6068,1.6048,1.6047,1.6047,1.6038,1.6038,1.6052,1.6062,1.6074,1.6125,1.6121,1.615,1.616,1.6168,1.6173,1.6197,1.6209,1.6083,1.6083,1.6083,0,0,1.6076,1.6069,1.6082,1.6093,1.6091,1.611,1.606,1.6083,1.6097,1.6051,1.6082,1.6076,1.6074,1.6116,1.6135,1.6113,1.6208,1.6175,1.6181,1.6182,1.6204,1.6216,1.6227,1.6087,1.6086,1.6085,0,0,1.6158,1.6155,1.6188,1.6188,1.6185,1.617,1.6179,1.6169,1.6162,1.6194,1.6159,1.6175,1.6201,1.62,1.6204,1.6286,1.6258,1.6291,1.6342,1.6366,1.6376,1.6385,1.6412,1.6422,1.6297,1.6297,1.6298,0,1.6207,1.6235,1.6209,1.6234,1.6239,1.6198,1.6231,1.6232,1.6234,1.6238,1.6214,1.6245,1.6241,1.6282,1.6302,1.6307,1.6314,1.6291,1.6377,1.6385,1.6393,1.6418,1.6429,1.6301,1.6301,1.63,1.63,0,1.6295,1.6316,1.6343,1.6345,1.6353,1.6383,1.636,1.6372,1.6352,1.634,1.6372,1.6366,1.6376,1.6385,1.6366,1.6423,1.6409,1.6383,1.6339,1.6409,1.6432,1.6442,1.6307,1.6305,1.6304,1.6303,0,0,1.6415,1.6402,1.6412,1.6412,1.6407,1.6422,1.6449,1.6458,1.6468,1.6472,1.6492,1.6515,1.649,1.6493,1.6475,1.6497,1.6559,1.6466,1.6465,1.6481,1.6619,1.6638,1.6649,1.6542,1.6544,1.6545,1.6618,0,1.6492,1.6536,1.6513,1.6561,1.6578,1.6541,1.6564,1.6564,1.6553,1.6567,1.6555,1.6571,1.6537,1.6539,1.6559,1.6547,1.6586,1.6542,1.656,1.656,1.6558,1.6662,1.6681,1.6751,1.6628,1.6629,1.663,0,1.6586,1.6593,1.6642,1.6632,1.6639,1.666,1.6666,1.668,1.6678,1.6669,1.6674,1.665,1.6675,1.6636,1.667,1.664,1.6647,1.6642,1.6644,1.6642,1.6597,1.666,1.6772,1.6782,1.6645,1.6644,1.6643,0,1.6665,1.6686,1.6718,1.6719,1.671,1.6725,1.6722,1.6718,1.6725,1.6731,1.6735,1.6744,1.6749,1.6756,1.6735,1.6708,1.6772,1.673,1.6763,1.6764,1.6776,1.6775,1.6888,1.6785,1.6785,1.6785,1.6785,0,1.6751,1.6782,1.6753,1.6772,1.6805,1.678,1.6813,1.6806,1.6803,1.682,1.6789,1.6806,1.6778,1.6792,1.6777,1.6806,1.6809,1.6802,1.6796,1.6803,1.6803,1.6804,1.6797,1.6787,1.6787,1.6786,1.6786,0,1.6843,1.6825,1.6856,1.6845,1.6843,1.6868,1.6858,1.6875,1.6863,1.6885,1.6888,1.687,1.6884,1.6865,1.6878,1.6868,1.6907,1.6896,1.6907,1.6903,1.6936,1.6932,1.7051,1.7064,1.6956,1.6957,1.6958,0,1.6897,1.692,1.6911,1.692,1.6918,1.6933,1.694,1.6916,1.6924,1.6924,1.6941,1.6953,1.6961,1.6986,1.6974,1.6983,1.6971,1.7012,1.6972,1.6977,1.6968,1.6966,1.6967,1.7019,1.702,1.7021,1.7022,0,1.6995,1.6985,1.6995,1.7003,1.7012,1.7017,1.7019,1.7029,1.7003,1.7014,1.7028,1.7035,1.7048,1.706,1.7066,1.7063,1.7038,1.7036,1.7043,1.7048,1.7052,1.7047,1.6926,1.7032,1.7031,1.703,1.703,1.7029,1.7068,1.7085,1.7081,1.7094,1.7094,1.7097,1.7112,1.7102,1.7113,1.7122,1.7108,1.7125,1.7123,1.7129,1.7128,1.7142,1.7124,1.7136,1.7138,1.714,1.7144,1.7053,1.7143,1.7143,1.7143,1.7143,1.7142,0,1.7161,1.7157,1.7169,1.7173,1.7183,1.716,1.7162,1.7171,1.7187,1.7187,1.7196,1.7212,1.7224,1.7213,1.7222,1.7235,1.7223,1.7238,1.7235,1.7234,1.7161,1.7152,1.7246,1.7246,1.7246,1.7246,1.7246,1.7246,1.721,1.7238,1.7228,1.7256,1.7252,1.7268,1.7271,1.7274,1.7273,1.7293,1.7302,1.7295,1.729,1.7299,1.7308,1.7305,1.7308,1.7326,1.7318,1.725,1.7239,1.723,1.7221,1.7328,1.7328,1.739,1.739,1.7391]},{"header":{"parameterUnit":"m.s-1","parameterCategory":1,"la1":30.2991,"la2":30.254,"lo1":-89.0895,"lo2":-89.0444,"dx":0.0017,"dy":0.0017,"nx":28,"ny":28,"refTime":"2022-11-07T09:00:00:Z","depth":0,"parameterNumber":3,"parameterNumberName":"V-component_of_WINDS"},"data":[0,0,0,0,0,0,0,0,0,0,0,0,0,0,0,0,0,0,0,0,0,0,0,0,0,0,0,0,0,0,0,0,0,0,0,0,0,0,0,0,0,0,0,0,0,0,0,0,0,0,0,0,0,0,0,0,0,0,-0.1434,-0.1435,0,-0.1516,-0.1517,-0.1518,-0.1572,-0.1573,-0.1573,-0.1574,-0.1661,-0.1663,-0.1665,0,0,0,0,0,0,0,0,0,0,0,0,0,-0.1329,-0.1331,-0.1434,-0.1435,-0.1436,-0.1516,-0.1517,-0.1518,-0.1572,-0.1573,-0.1573,-0.1574,-0.1661,-0.1663,-0.1666,0,0,0,0,0,0,0,0,0,0,0,0,0,-0.139,-0.1331,-0.1434,-0.1473,-0.1477,-0.1516,-0.1517,-0.1519,-0.1572,-0.1573,-0.1573,-0.1574,-0.166,-0.1663,-0.1666,-0.1674,0,0,-0.1675,-0.1676,0,0,0,0,0,0,0,0,-0.1386,-0.1393,-0.1466,-0.147,-0.1475,-0.1535,-0.1513,-0.1571,-0.1572,-0.1536,-0.1574,-0.1574,-0.1619,-0.1626,-0.164,-0.1678,-0.1682,-0.1675,-0.1677,-0.1679,-0.1679,0,0,0,0,0,0,0,-0.1382,-0.139,-0.1467,-0.1467,-0.1473,-0.1488,-0.1497,-0.1524,-0.1574,-0.1539,-0.1544,-0.1552,-0.1622,-0.1637,-0.1642,-0.1683,-0.1675,-0.1678,-0.168,-0.1681,-0.1735,-0.1735,0,0,0,0,0,0,-0.1371,-0.1386,-0.1464,-0.1469,-0.1431,-0.1489,-0.1499,-0.1515,-0.1574,-0.1583,-0.1552,-0.1555,-0.1631,-0.1639,-0.1646,-0.1661,-0.1679,-0.1681,-0.1683,-0.1736,-0.1735,-0.1735,0,0,0,0,0,0,-0.1368,-0.1377,-0.1461,-0.1429,-0.1441,-0.149,-0.1508,-0.1516,-0.1532,-0.1583,-0.1593,-0.1558,-0.1632,-0.1641,-0.1667,-0.1665,-0.1683,-0.1685,-0.1736,-0.1735,-0.1735,-0.169,0,0,0,0,0,0,-0.1365,-0.1376,-0.1378,-0.1429,-0.1442,-0.1479,-0.1507,-0.1518,-0.1536,-0.1541,-0.1591,-0.16,-0.1633,-0.1662,-0.167,-0.1669,-0.1688,-0.1737,-0.1736,-0.1735,-0.1692,-0.1688,-0.1685,0,0,0,0,0,-0.1361,-0.1363,-0.1378,-0.1387,-0.1446,-0.1479,-0.1487,-0.1524,-0.1536,-0.1539,-0.1573,-0.1598,-0.1663,-0.1664,-0.1673,-0.1674,-0.1737,-0.1736,-0.1735,-0.1694,-0.1689,-0.1685,0,0,0,0,0,0,-0.1312,-0.137,-0.1388,-0.1405,-0.1437,-0.1488,-0.1494,-0.1517,-0.1547,-0.155,-0.1596,-0.1607,-0.1628,-0.1653,-0.1653,-0.1686,-0.1703,-0.1704,-0.1669,-0.1664,-0.1661,-0.1655,-0.169,0,0,0,0,0,-0.1303,-0.1323,-0.1374,-0.1384,-0.1399,-0.1443,-0.1459,-0.1485,-0.152,-0.1534,-0.1569,-0.1603,-0.1632,-0.1649,-0.1678,-0.1696,-0.1709,-0.1701,-0.1697,-0.1694,-0.1694,-0.1708,-0.1706,-0.1732,-0.1732,-0.1732,0,0,-0.1285,-0.1319,-0.133,-0.1375,-0.1403,-0.1425,-0.1454,-0.1476,-0.1493,-0.1538,-0.1564,-0.1591,-0.1632,-0.1654,-0.1666,-0.1676,-0.169,-0.1692,-0.1689,-0.1692,-0.1707,-0.1704,-0.1702,-0.1731,-0.1732,-0.1732,0,0,-0.1264,-0.1291,-0.1304,-0.133,-0.1371,-0.1401,-0.1404,-0.1452,-0.1471,-0.1498,-0.1533,-0.1555,-0.1602,-0.1631,-0.1651,-0.1642,-0.1668,-0.165,-0.1632,-0.1644,-0.1642,-0.1641,-0.164,-0.1638,-0.1651,-0.1651,-0.1651,0,-0.1237,-0.127,-0.1308,-0.1328,-0.1348,-0.1388,-0.1403,-0.1427,-0.1475,-0.1489,-0.15,-0.1561,-0.1591,-0.1622,-0.162,-0.1635,-0.1641,-0.1645,-0.1639,-0.1638,-0.1637,-0.1637,-0.1636,-0.1648,-0.1649,-0.1649,-0.1649,0,-0.1236,-0.1258,-0.1264,-0.1309,-0.133,-0.1347,-0.1389,-0.1406,-0.143,-0.1459,-0.1487,-0.1525,-0.1564,-0.1573,-0.1597,-0.1607,-0.1613,-0.163,-0.1649,-0.1632,-0.1632,-0.1632,-0.1645,-0.1646,-0.1647,-0.1647,0,0,-0.1186,-0.1252,-0.1254,-0.1275,-0.1324,-0.1343,-0.1363,-0.1399,-0.1414,-0.1446,-0.1465,-0.1505,-0.1522,-0.1546,-0.1573,-0.1584,-0.1578,-0.1602,-0.1603,-0.1597,-0.1594,-0.1581,-0.158,-0.1594,-0.1594,-0.1594,-0.1591,0,-0.1173,-0.121,-0.1245,-0.127,-0.1292,-0.1331,-0.1349,-0.1382,-0.141,-0.1434,-0.1466,-0.1494,-0.1514,-0.1528,-0.1541,-0.1575,-0.1578,-0.1576,-0.1615,-0.1616,-0.1605,-0.158,-0.1566,-0.1562,-0.1592,-0.1592,-0.1592,0,-0.1163,-0.1194,-0.122,-0.1268,-0.1279,-0.1294,-0.1331,-0.1353,-0.1392,-0.1412,-0.1438,-0.1468,-0.1493,-0.1508,-0.1545,-0.1543,-0.1561,-0.1581,-0.1581,-0.1588,-0.1603,-0.1587,-0.1561,-0.156,-0.1592,-0.1592,-0.1592,0,-0.1127,-0.1174,-0.1197,-0.1214,-0.1269,-0.128,-0.1303,-0.1342,-0.1363,-0.1395,-0.1409,-0.1445,-0.1465,-0.1493,-0.1532,-0.1539,-0.1565,-0.1583,-0.1585,-0.1584,-0.1589,-0.1589,-0.1567,-0.1598,-0.1598,-0.1598,-0.1598,0,-0.111,-0.1125,-0.1181,-0.1195,-0.1214,-0.1255,-0.1273,-0.1301,-0.1336,-0.1357,-0.1393,-0.1413,-0.1462,-0.1489,-0.152,-0.1547,-0.1555,-0.1574,-0.1582,-0.1571,-0.1569,-0.1585,-0.1587,-0.1598,-0.1598,-0.1598,-0.1598,0,-0.1073,-0.111,-0.1138,-0.1188,-0.1202,-0.1213,-0.1258,-0.1274,-0.1304,-0.1331,-0.134,-0.1388,-0.1421,-0.1462,-0.1509,-0.153,-0.1554,-0.1566,-0.1541,-0.1546,-0.1545,-0.1545,-0.1534,-0.1535,-0.1564,-0.1563,-0.1563,0,-0.1061,-0.1073,-0.1125,-0.1141,-0.1164,-0.119,-0.1211,-0.1252,-0.1273,-0.1318,-0.1329,-0.1365,-0.1396,-0.1447,-0.1487,-0.1524,-0.1538,-0.1531,-0.1544,-0.1533,-0.154,-0.1539,-0.1542,-0.1528,-0.1528,-0.1527,-0.1527,0,-0.1035,-0.1053,-0.1081,-0.1116,-0.1139,-0.1168,-0.12,-0.1211,-0.126,-0.1281,-0.1315,-0.1339,-0.1386,-0.1422,-0.1463,-0.1491,-0.1518,-0.1523,-0.1525,-0.1515,-0.1501,-0.151,-0.1534,-0.1523,-0.1523,-0.1524,-0.1524,-0.1524,-0.1012,-0.1025,-0.1064,-0.1094,-0.1122,-0.115,-0.1168,-0.1201,-0.1229,-0.127,-0.1293,-0.1327,-0.1367,-0.1426,-0.1452,-0.148,-0.149,-0.1493,-0.1494,-0.1495,-0.1492,-0.1495,-0.1488,-0.1488,-0.1488,-0.1488,-0.1488,0,-0.099,-0.1017,-0.1044,-0.1086,-0.111,-0.1132,-0.1168,-0.1187,-0.1216,-0.125,-0.128,-0.132,-0.1355,-0.1398,-0.1436,-0.1451,-0.1464,-0.146,-0.146,-0.1466,-0.148,-0.1475,-0.1448,-0.1448,-0.1448,-0.1448,-0.1448,-0.1448,-0.0981,-0.1006,-0.1029,-0.1069,-0.1096,-0.1128,-0.1147,-0.1175,-0.1203,-0.1245,-0.1274,-0.1301,-0.134,-0.1382,-0.1416,-0.1428,-0.1441,-0.1433,-0.1449,-0.1461,-0.1465,-0.1468,-0.1464,-0.1435,-0.1435,-0.1432,-0.1432,-0.1432]}]]